STARLINK-2097 (47377 NORAD) Tracking and Keplerian Element Data

This shows tracking and keplerian element data for the satellite.

Feedback or suggestion? Click here.




ElementValue
Catalog47377
NameSTARLINK-2097
Epoch Orbit1348
Epoch Day106.25002315
Epoch Year2021
RAAN170.2274
Inclination53.054
Eccentricity0.0001138
Argument of Perigee79.1056
Mean Anonmoly191.8588
Mean Motion15.06421977
Decay Rate-0.00013211
L11 47377U 21005AE 21106.25002315 -.00013211 00000-0 -86916-3 0 9997
L22 47377 53.0540 170.2274 0001138 79.1056 191.8588 15.06421977 13489

Live tracking and technical data element details for STARLINK-2097 (NORAD 47377). STARLINK-2097 can be tracked NOW for your location showing map with azimuth and elevation plus other details from your city location.

Track the satellite on the map from your city or location and see movement details for azimuth, elevation, latitude, longitude, range, height, and movement on the map or in text.







IsCatalogInMostPopularTable: catalog: 47377, numindb: 14
Update: records affected: 1



GetName: 47377 STARLINK-2097

Hit Count: updated at: Fri, 16 Apr 2021 11:49:19 GMT